Wind_Speed
11 10 6 7 6 4 6 5 6 1 3 3 3 1 1 3 7 4 4 5 6 5 5 6 5 5 6 7 9 10 10 10 11 11 14 16 16 15 15 14 14 16 18 19 19 19 19 19 19 18 16 15 14 12 11 10 8 7 6 5 4 2 2
5 4 7 8 1 1 4 6 6 5 3 3 4 4 3 5 7 3 4 8 7 4 3 5 7 6 7 7 9 10 10 11 12 12 12 15 16 16 15 15 15 16 18 19 19 20 20 21 20 18 17 16 14 12 11 9 8 7 6 5 4 3 2
7 6 8 7 3 3 4 2 7 5 4 5 5 5 5 5 7 4 4 6 6 6 3 3 5 5 4 5 8 10 11 13 13 12 13 15 16 15 15 15 14 15 17 19 20 20 21 21 20 18 18 16 14 12 10 9 7 6 6 5 4 3 3
9 8 9 8 8 6 3 2 6 6 5 3 4 4 4 5 6 6 3 4 5 5 2 1 2 3 4 4 6 9 11 13 13 12 13 14 15 15 14 15 14 15 18 21 21 21 22 21 20 18 18 16 14 12 11 9 8 7 6 5 4 4 4
8 9 9 9 9 10 8 7 8 7 4 2 3 4 4 5 5 5 4 5 4 2 4 1 3 3 3 4 5 7 9 11 12 12 13 13 14 15 15 15 15 16 19 22 22 21 21 21 20 19 17 15 13 12 11 10 9 8 7 7 6 5 5
9 10 8 4 4 7 11 9 9 10 7 5 5 5 4 3 5 5 4 6 5 4 5 3 3 3 4 4 5 6 7 9 11 12 14 14 14 16 16 16 16 16 19 22 22 22 21 20 20 19 16 14 13 12 11 10 9 8 8 7 7 6 6
5 5 5 2 3 3 7 8 9 10 8 8 8 6 4 4 4 4 4 7 4 5 6 4 2 2 2 2 4 5 5 8 10 12 14 14 14 16 17 17 16 16 20 22 21 21 21 20 20 18 16 14 13 12 11 10 9 9 8 7 8 7 7
4 5 5 3 1 3 7 8 9 9 9 10 7 3 2 4 4 4 5 7 3 4 4 2 2 1 3 3 4 5 5 6 9 12 13 13 14 15 17 16 14 16 20 21 20 20 20 19 18 18 16 15 14 12 12 11 10 9 8 8 8 8 8
6 5 5 6 5 6 9 10 11 12 11 9 5 1 2 5 7 7 6 7 3 4 3 2 3 4 5 5 5 5 5 5 7 10 11 13 13 13 16 16 15 17 18 19 19 19 18 18 18 18 17 16 15 13 13 12 10 9 9 9 9 8 8
10 9 8 9 8 8 10 11 12 14 14 12 8 5 5 6 6 7 7 8 4 3 6 4 4 5 6 6 6 5 5 6 5 7 9 11 12 13 16 16 16 17 16 17 19 19 18 19 18 17 16 16 15 14 13 12 10 9 9 9 9 9 9
10 9 7 10 11 11 12 15 16 16 17 16 11 8 7 5 4 6 8 9 9 6 4 4 2 4 6 6 7 7 6 7 6 6 8 10 10 12 14 14 15 15 15 16 19 20 19 20 19 17 17 16 15 14 14 13 11 10 10 10 10 10 9
11 6 4 8 13 14 14 17 17 16 17 16 14 11 7 4 5 7 5 7 11 13 10 8 6 6 8 8 8 8 6 6 7 7 9 10 11 11 13 14 15 16 15 15 17 20 20 20 19 17 16 15 15 14 14 13 12 11 10 11 11 10 10
10 4 4 7 11 12 13 15 15 16 17 16 16 15 10 6 8 9 2 6 9 12 11 11 9 7 9 10 8 8 6 6 8 9 10 11 12 13 14 15 16 16 16 15 16 19 20 19 19 17 15 14 14 14 14 13 12 12 11 12 12 11 11
8 5 6 8 10 11 12 14 14 15 17 17 17 15 11 9 11 10 4 4 8 11 12 11 9 7 8 8 8 9 9 9 8 10 11 12 13 14 15 16 16 16 16 16 17 19 19 19 19 17 15 14 14 15 15 14 13 12 12 13 13 12 11
7 6 7 8 10 11 11 12 12 14 14 14 14 12 8 8 9 8 8 8 9 10 9 6 5 6 6 8 10 12 11 9 8 11 12 13 14 15 15 16 16 16 16 16 17 18 19 19 19 17 15 15 15 16 15 14 13 13 14 14 14 13 12
6 6 8 9 9 10 11 11 11 13 13 11 10 8 7 8 8 7 8 9 8 6 5 5 7 9 9 12 13 11 9 7 8 11 12 12 13 14 15 16 16 17 17 17 17 19 20 20 19 17 16 16 17 17 15 13 13 13 15 15 14 13 13
6 8 9 9 9 10 10 10 12 13 12 10 9 8 7 7 7 7 7 7 6 6 6 8 10 11 11 12 10 8 7 7 8 10 10 11 12 13 14 16 17 17 18 19 20 21 21 21 20 18 18 18 18 17 15 14 13 14 15 14 14 13 13
6 9 9 8 10 10 6 3 7 11 11 11 10 9 8 8 7 7 7 7 7 8 8 9 10 10 10 9 7 7 6 6 7 8 9 10 10 12 14 15 16 16 17 19 21 22 22 22 20 19 19 19 18 17 15 14 15 16 15 14 14 13 13
5 6 7 10 10 6 2 4 2 3 6 9 10 9 9 9 9 9 9 9 8 8 9 8 8 8 8 8 8 8 7 7 7 7 8 8 9 11 12 14 15 15 16 19 21 22 22 22 21 20 20 19 18 17 16 16 16 16 15 14 14 14 13
5 6 9 10 5 3 5 5 4 4 3 6 8 8 9 9 9 9 10 9 8 9 8 6 4 5 6 8 8 8 8 8 8 7 6 7 8 10 11 12 14 16 18 20 21 21 21 21 21 20 20 20 18 17 17 17 17 16 15 15 14 14 13
5 8 10 7 3 3 4 4 5 5 5 6 6 7 7 7 7 8 7 7 8 8 6 3 2 2 5 7 6 6 6 6 6 6 5 5 7 8 9 12 15 17 19 20 21 22 21 21 22 21 20 20 19 18 18 18 17 16 15 15 15 14 13
6 10 10 8 9 9 7 7 8 8 5 4 4 5 6 6 7 7 5 6 7 6 4 3 2 2 5 7 3 4 4 5 5 5 4 4 6 8 11 13 16 18 18 19 22 24 23 22 22 21 20 21 20 19 19 18 17 16 16 15 15 13 12
7 9 10 9 9 8 5 6 7 6 4 4 4 5 7 5 6 5 4 5 6 6 4 4 4 4 7 5 2 5 5 5 5 5 4 5 6 9 11 14 16 18 18 20 23 24 22 21 21 21 22 22 21 20 20 19 17 17 17 16 14 13 12
9 9 10 8 7 3 2 6 8 7 6 5 3 8 5 1 2 2 3 5 6 5 5 4 6 7 6 2 3 5 6 6 5 5 5 5 7 9 11 13 15 17 18 19 20 20 19 20 22 22 22 23 22 21 21 20 19 18 18 16 14 13 12
10 11 10 8 6 1 6 6 7 8 7 4 7 8 3 2 1 1 3 6 7 5 6 6 6 5 1 3 4 6 7 7 6 5 6 7 7 9 11 13 14 16 17 17 18 18 20 22 22 20 20 21 21 21 20 20 20 18 17 15 14 13 12
10 9 8 9 7 2 5 3 5 6 5 6 5 3 4 4 3 1 4 8 8 6 7 8 7 4 4 5 5 6 7 7 7 7 7 8 8 9 10 12 13 14 15 16 18 19 22 23 19 16 17 18 18 18 18 20 20 18 16 15 14 11 9
8 8 8 9 6 2 3 2 4 3 4 4 3 3 3 4 4 4 6 8 8 8 9 9 8 5 5 6 6 7 7 7 8 8 8 8 8 9 10 12 13 13 12 13 17 20 20 18 14 13 15 15 15 15 18 20 19 17 15 13 10 8 7
6 8 6 3 1 4 2 2 1 1 3 4 4 5 6 6 6 6 6 7 8 9 8 7 7 6 5 6 7 8 8 9 9 8 8 8 8 9 10 11 13 12 11 11 13 15 14 11 10 12 14 13 13 15 17 18 16 13 12 11 9 7 6
3 3 1 3 3 3 2 3 3 5 7 7 7 8 8 8 8 6 6 8 8 6 6 7 7 7 6 7 8 8 9 9 9 8 8 8 8 8 8 9 10 10 9 8 7 7 7 7 7 10 12 12 13 16 18 16 13 12 12 11 9 7 6
1 0 3 3 1 2 2 2 3 6 7 7 7 8 8 9 9 8 8 9 8 6 7 7 8 8 7 7 8 8 8 8 8 8 8 8 8 8 8 7 7 6 5 5 5 5 5 5 6 8 10 11 13 16 16 14 13 13 12 11 9 8 6
2 3 2 3 3 3 4 4 4 6 8 8 8 8 8 8 10 10 9 9 8 6 7 9 9 9 9 8 8 7 7 7 8 8 8 8 8 8 7 7 5 3 3 3 5 5 5 5 6 7 8 10 12 12 12 11 12 12 11 10 8 7 5
2 1 3 5 5 1 5 5 6 7 10 12 11 10 9 9 10 10 8 7 7 6 8 9 9 9 9 9 8 7 7 7 7 7 7 7 7 7 7 6 4 3 3 3 3 2 2 1 2 4 5 7 8 8 8 9 9 10 9 8 7 5 4
4 3 2 7 6 6 5 6 9 9 11 13 13 12 11 10 10 9 8 7 6 6 7 8 8 8 8 8 8 9 8 7 7 7 7 8 8 7 7 7 5 4 3 2 3 3 3 2 1 1 2 3 4 4 5 5 7 8 8 7 4 3 3
5 1 3 6 4 5 2 7 11 12 13 13 13 12 11 11 10 8 7 6 5 5 6 7 7 7 7 5 6 8 8 8 8 9 9 8 9 8 8 7 7 7 6 5 5 4 4 3 2 1 1 1 3 3 3 4 6 7 8 7 3 3 5
3 4 6 5 3 6 7 9 11 12 11 11 12 12 11 11 10 8 7 7 7 7 5 6 7 7 7 5 5 7 8 8 8 9 8 8 8 8 7 7 7 7 6 6 5 4 4 3 2 2 2 2 2 3 3 4 5 6 7 7 4 6 7
4 5 6 5 5 7 10 12 13 10 7 9 12 12 11 11 10 9 9 8 9 9 7 6 7 8 8 6 5 6 8 8 8 8 8 7 8 7 7 7 7 7 6 5 5 4 3 3 2 2 2 2 3 3 3 3 4 5 7 7 6 7 7
6 7 8 7 7 8 9 11 10 7 6 10 12 12 11 11 10 9 10 8 8 10 9 8 8 9 8 7 6 7 7 8 9 9 8 8 7 6 6 7 7 7 6 5 5 4 3 3 2 2 2 2 2 3 3 3 3 4 5 5 4 5 5
Wind_Direction
182 191 162 175 218 194 166 202 214 190 356 257 233 275 279 280 275 237 191 235 241 246 248 204 196 237 230 213 211 215 217 213 210 211 208 201 192 187 185 183 182 182 183 184 182 180 181 182 182 182 176 177 186 190 188 186 186 193 198 198 199 206 230
150 185 155 150 250 247 189 208 179 118 42 267 244 249 213 228 258 239 194 245 250 232 226 174 181 230 236 216 214 213 211 210 210 209 207 202 193 185 181 180 180 181 182 183 183 183 184 184 184 182 178 180 188 191 188 187 190 199 203 205 212 222 238
137 167 177 161 165 218 268 237 153 160 225 208 199 242 257 253 270 272 206 230 253 239 218 155 186 233 256 222 208 208 209 207 208 206 199 196 190 182 179 180 180 181 180 182 184 184 184 184 183 181 179 182 189 190 187 189 195 205 212 213 221 237 249
151 171 198 200 182 177 253 237 175 203 251 229 196 227 271 278 280 287 242 212 235 222 172 98 237 264 280 236 201 206 213 207 206 202 193 190 186 182 180 181 181 180 182 184 186 186 184 182 181 181 182 186 192 190 183 186 196 206 217 221 229 245 251
171 187 200 216 203 182 196 211 199 197 205 245 245 223 249 274 279 288 274 261 271 118 117 215 263 255 256 241 213 213 214 208 204 197 191 188 185 184 184 184 182 180 182 184 186 186 183 180 181 185 186 190 195 193 187 192 203 213 223 228 235 247 250
201 199 185 222 255 201 199 207 208 204 196 210 237 223 205 230 265 278 283 282 293 95 129 204 246 242 231 228 228 220 209 206 200 192 191 188 186 187 187 188 186 180 180 183 186 187 183 180 184 188 187 189 194 196 200 208 217 228 236 234 234 242 245
187 149 121 57 329 247 220 221 223 219 206 213 237 242 196 190 237 261 273 280 283 110 132 181 202 264 260 249 261 247 214 201 194 191 191 187 187 190 189 190 188 180 179 182 183 183 179 178 184 186 184 189 195 199 207 217 225 235 243 239 234 237 239
127 108 110 135 195 235 227 223 230 236 227 227 245 267 184 204 226 230 249 266 262 108 113 148 146 226 260 246 258 260 236 205 190 191 190 186 188 191 189 191 186 178 177 177 176 175 172 173 180 182 183 189 194 199 211 222 226 231 238 240 239 239 240
180 175 174 177 184 212 225 222 221 231 234 234 237 161 177 234 240 238 257 276 271 114 124 176 162 195 231 230 235 246 242 228 200 191 189 185 185 185 185 185 180 176 175 171 168 168 168 171 177 179 181 185 189 196 212 225 230 228 230 236 241 243 246
201 206 209 202 197 203 222 227 216 214 219 220 218 210 220 235 231 225 245 273 290 120 148 178 174 194 224 234 240 236 229 234 220 197 191 187 184 183 181 179 176 175 174 167 163 164 168 173 177 179 179 182 188 195 209 224 230 227 228 234 241 246 251
221 224 216 206 211 209 211 215 209 207 213 215 217 232 239 219 195 218 227 247 274 270 225 230 245 244 251 253 254 246 225 219 215 202 196 191 189 185 179 177 176 175 173 166 161 165 171 175 178 179 180 184 188 193 206 219 222 222 226 231 236 243 252
236 244 205 195 218 225 218 215 212 208 209 210 215 229 231 183 210 247 213 203 254 271 277 291 297 279 275 275 271 270 251 221 209 202 198 196 194 188 181 180 180 177 174 167 163 166 171 174 176 177 181 184 187 194 206 215 218 220 224 227 232 239 247
224 226 200 202 224 233 230 225 215 205 202 205 214 225 222 209 245 268 173 165 243 271 287 297 300 292 285 284 286 290 280 246 219 205 201 200 196 190 186 185 184 181 175 169 165 166 169 172 173 174 178 180 185 197 208 212 216 221 222 224 230 237 242
206 194 201 211 222 227 231 228 214 202 201 204 213 224 224 227 251 267 253 220 256 278 289 293 296 294 287 287 289 282 272 257 232 212 208 205 198 194 192 189 188 184 176 170 165 164 168 171 171 173 175 178 189 204 211 212 216 220 221 223 227 234 239
195 184 190 202 216 218 217 216 205 198 200 202 213 226 220 219 242 259 265 267 269 277 282 280 283 286 277 270 270 269 270 267 246 229 220 212 204 200 195 190 187 184 178 172 165 163 168 170 170 174 177 183 199 211 215 217 218 219 220 222 225 231 238
197 177 188 192 201 209 205 200 193 191 196 202 213 219 208 217 237 245 255 263 269 284 297 290 289 288 274 263 261 262 271 275 259 245 234 222 212 204 196 191 188 184 179 175 169 166 169 170 172 176 180 190 204 212 215 219 222 222 220 221 226 231 236
190 169 191 188 188 210 213 200 195 197 203 211 215 214 210 221 240 248 254 266 291 320 315 294 288 288 283 276 269 265 273 277 265 252 242 233 220 207 198 192 187 185 182 177 171 167 168 171 175 180 187 197 206 210 212 216 221 223 221 222 227 232 237
192 163 178 194 209 225 227 197 204 208 213 219 222 225 219 211 221 244 265 280 293 299 289 278 280 289 295 293 280 266 263 259 256 251 243 237 224 209 202 195 189 189 183 173 167 165 167 173 179 186 195 202 206 209 211 215 219 221 221 223 228 232 239
214 158 180 219 233 229 145 92 120 188 213 223 231 237 227 218 223 237 256 269 274 277 276 275 282 291 299 294 277 260 246 235 242 247 240 233 222 211 204 197 192 189 176 165 161 162 168 175 182 190 198 203 207 209 211 215 217 218 220 224 227 232 239
205 188 212 230 234 126 120 118 103 99 151 200 220 234 228 225 231 237 251 267 271 272 274 277 282 288 293 286 266 244 234 230 233 241 236 223 216 210 203 197 191 180 169 161 156 154 162 174 184 193 200 205 209 210 211 215 217 217 220 224 227 231 239
216 225 228 230 215 159 154 159 164 176 189 191 214 249 245 230 238 250 261 267 265 270 274 266 258 277 281 272 242 207 214 221 223 235 232 209 205 202 195 191 182 171 165 159 152 151 161 177 189 197 202 206 208 211 213 215 217 218 220 222 225 231 239
224 240 238 235 240 237 227 213 195 194 206 189 197 262 263 237 240 258 265 255 252 257 253 223 195 220 256 255 206 151 175 188 194 212 212 191 187 183 182 181 172 165 162 157 155 162 173 184 193 201 205 205 206 210 214 217 219 220 220 222 225 232 242
221 239 242 236 245 253 238 194 167 166 172 134 140 252 260 234 226 237 239 241 247 248 235 201 182 217 253 258 139 133 162 167 167 180 176 163 163 166 172 173 165 162 160 157 162 172 181 189 197 202 204 205 206 210 214 219 222 221 220 222 224 232 245
224 233 244 246 251 264 108 122 129 136 140 129 203 254 257 158 155 214 234 247 252 244 227 198 200 233 267 327 99 139 154 145 145 156 155 151 152 158 165 165 160 159 157 158 168 179 187 197 204 204 202 204 207 211 214 219 223 222 220 220 223 233 246
225 227 241 248 244 115 89 113 130 130 139 187 246 261 297 4 314 226 253 267 269 244 214 207 224 240 256 85 127 147 141 132 136 143 142 143 148 155 159 157 157 161 164 170 178 187 197 207 209 204 200 201 206 211 215 220 222 220 219 223 229 237 243
233 230 238 246 240 109 79 114 134 135 196 245 264 316 345 325 302 294 268 274 277 253 220 223 241 230 144 142 157 146 134 134 138 141 140 143 151 155 154 155 160 167 174 182 190 198 207 212 209 200 196 199 203 209 216 222 221 220 223 229 230 228 224
239 232 234 245 244 92 80 143 142 162 247 285 4 355 323 331 342 327 286 276 277 262 235 227 232 213 161 156 153 140 138 142 142 142 141 142 150 155 158 164 171 177 181 187 198 209 214 211 201 192 195 199 201 207 218 224 223 220 219 214 202 194 200
240 243 238 230 111 67 37 295 269 277 302 346 351 313 312 328 327 314 295 284 279 269 252 229 212 196 171 161 150 141 144 149 147 144 142 143 151 164 176 179 180 186 192 194 204 213 211 197 187 192 201 204 203 211 222 225 219 206 194 183 176 182 206
243 276 18 83 90 55 359 327 340 334 328 335 323 305 303 299 290 286 287 286 278 262 250 230 202 187 178 170 159 147 144 148 148 145 145 147 149 159 170 170 172 188 200 200 202 200 185 176 185 199 207 209 209 217 225 222 207 187 173 171 179 194 213
196 10 56 64 39 18 33 37 16 349 335 337 331 311 295 287 283 276 273 278 274 248 229 218 199 186 175 163 152 144 139 141 142 141 142 143 142 143 140 135 145 173 191 195 198 194 188 200 213 215 218 222 226 230 226 211 193 180 172 171 182 196 213
229 227 112 41 353 20 58 56 38 12 350 344 337 313 293 288 289 283 275 271 265 241 218 208 193 180 169 154 140 139 141 139 138 140 139 135 131 129 124 119 125 147 176 208 222 229 232 228 229 233 235 237 241 241 229 206 184 171 168 173 184 196 206
252 196 81 11 324 200 112 59 30 16 354 341 333 317 298 286 283 282 277 263 242 216 204 199 187 174 165 154 145 145 143 135 133 134 129 124 118 112 113 121 133 149 179 214 236 256 256 219 231 255 255 250 247 240 229 214 186 166 167 173 179 188 187
234 188 66 354 301 203 147 39 12 3 347 335 329 320 307 291 279 273 263 247 228 207 193 186 179 166 152 151 159 159 147 136 133 127 119 118 120 118 120 128 131 124 115 97 75 69 73 74 60 279 259 260 245 219 209 198 172 162 158 150 147 175 181
237 203 39 9 313 240 268 356 352 345 340 335 330 324 314 303 292 274 248 222 200 185 177 171 166 145 125 142 183 175 149 134 127 123 123 123 121 119 119 117 109 96 85 81 83 90 93 86 83 115 135 219 235 216 194 164 153 152 143 133 149 227 218
292 25 34 27 336 300 311 329 331 330 334 337 336 331 320 308 298 278 245 203 166 156 163 164 158 144 132 153 195 173 139 123 113 111 118 122 119 118 117 110 102 97 93 93 98 100 101 102 108 123 138 164 191 192 173 153 154 156 147 147 191 232 233
320 346 354 350 323 302 303 311 315 318 328 335 336 336 326 313 304 287 257 216 169 154 155 156 160 163 156 151 156 144 128 121 115 111 112 115 116 119 121 115 113 114 113 112 114 115 118 126 135 159 190 198 201 200 184 168 173 174 166 173 205 232 238
315 319 325 320 304 292 293 298 301 309 332 336 332 329 323 314 305 293 273 237 182 160 159 157 159 168 168 154 144 141 130 123 123 122 118 115 116 123 132 131 130 131 131 132 135 137 141 150 159 196 222 225 230 228 212 190 183 177 173 188 221 240 238
Height
746 750 750 746 758 772 773 775 784 780 765 771 797 809 801 804 817 809 800 799 784 773 772 762 762 769 765 767 769 767 769 768 769 771 769 770 773 775 778 781 783 787 791 795 797 801 804 808 811 814 816 819 821 823 824 825 826 827 828 828 828 828 828
755 744 747 752 751 757 773 782 776 768 771 775 790 809 811 813 821 806 795 800 792 789 788 771 767 773 767 766 767 766 767 768 770 770 768 769 769 772 776 778 781 784 788 792 795 798 802 805 809 812 814 817 819 821 823 824 825 825 826 827 826 827 827
760 746 752 765 758 752 764 767 758 767 790 794 795 808 814 815 819 806 796 797 791 789 786 773 772 773 766 764 765 766 766 766 767 767 767 768 768 771 774 776 780 782 785 790 793 796 800 803 807 810 813 816 818 820 821 822 824 824 825 825 825 826 826
758 756 760 773 770 762 762 761 758 765 778 785 789 795 797 805 815 808 801 800 789 775 768 768 771 767 763 763 764 765 764 761 762 763 764 766 767 769 771 774 777 779 782 787 791 794 797 801 806 808 811 814 815 817 819 820 822 823 823 824 824 824 824
761 766 762 762 764 765 770 773 772 772 773 776 781 784 783 792 807 810 810 809 786 761 757 763 764 760 758 759 760 762 760 757 758 759 760 763 764 766 768 770 773 776 780 784 789 793 796 799 804 806 808 811 812 815 817 819 820 821 822 822 823 823 823
767 762 750 747 750 753 760 767 768 769 774 780 791 796 787 784 795 801 807 812 787 756 753 757 755 755 753 752 755 757 756 755 755 755 757 759 760 762 764 766 769 772 777 782 787 791 794 797 801 803 806 808 810 813 815 817 818 819 820 821 821 822 822
760 752 745 747 749 745 748 753 752 753 762 773 789 800 792 786 791 788 795 807 785 753 749 752 752 753 752 751 754 754 753 752 753 754 754 755 757 758 760 762 765 769 774 779 784 788 792 795 798 801 804 806 808 811 813 815 816 817 818 819 820 820 820
753 749 747 747 747 749 754 754 749 749 754 757 766 776 779 785 792 789 798 807 783 756 752 753 752 754 753 753 753 754 753 750 750 753 753 754 756 756 757 760 763 767 772 777 782 786 789 793 796 799 802 804 807 809 811 813 814 815 816 817 818 819 819
775 771 769 764 758 758 759 755 750 750 751 753 760 767 774 785 786 784 798 802 777 759 758 755 753 754 753 751 750 752 754 751 750 751 751 753 755 756 757 760 762 765 769 774 779 783 787 790 794 797 800 803 805 807 810 810 811 813 814 816 817 817 817
789 789 782 771 764 761 756 752 750 752 753 758 765 771 782 791 785 780 792 791 770 759 759 757 755 755 754 752 749 749 752 752 751 751 752 753 754 756 757 759 761 763 766 770 774 779 784 788 791 795 797 800 803 805 808 809 810 811 813 814 815 815 816
764 766 759 747 747 754 756 754 752 753 753 754 760 771 781 786 785 785 784 778 772 766 761 757 756 755 755 753 750 750 751 751 752 752 752 753 753 755 756 758 760 763 765 767 770 776 781 785 789 792 795 798 801 803 806 807 808 809 811 813 813 814 814
743 743 743 738 739 745 749 750 752 753 752 752 760 770 772 773 784 788 776 772 777 771 758 756 756 755 755 752 750 750 749 749 750 750 752 753 753 754 756 758 760 761 764 766 768 774 778 782 786 789 792 795 798 801 803 805 806 807 809 811 811 812 812
740 740 741 738 738 740 741 743 747 750 751 755 760 762 760 765 777 780 772 774 778 767 756 755 753 751 753 750 748 747 747 747 747 749 751 752 753 754 755 756 757 759 762 763 766 771 775 780 784 787 790 793 796 799 801 802 804 805 807 809 809 810 810
744 744 743 740 739 742 742 740 741 745 748 751 754 753 752 759 767 765 765 773 773 760 754 752 748 747 748 747 746 746 745 746 746 747 749 750 750 751 752 753 755 756 758 760 764 768 773 777 781 784 788 791 794 797 798 800 802 803 805 806 807 808 808
751 747 743 742 741 743 744 742 739 741 746 749 750 750 752 760 766 762 763 772 770 753 745 746 746 745 746 747 747 745 743 743 744 746 746 746 747 747 748 750 752 753 755 758 761 765 770 774 778 782 786 789 792 794 796 798 800 801 803 804 804 805 805
757 749 747 747 742 741 747 749 745 744 747 749 749 750 753 759 765 766 768 773 766 749 741 745 746 745 746 747 745 743 742 742 743 744 744 743 744 744 745 747 748 750 752 755 757 761 767 772 776 780 784 787 790 792 793 795 797 799 801 801 802 802 803
755 750 748 746 746 755 760 751 743 743 744 745 746 748 750 751 755 763 767 763 753 745 744 749 748 746 746 744 741 742 742 741 742 742 741 741 741 740 742 743 745 747 748 750 754 759 764 769 774 778 782 785 787 789 791 793 795 797 797 798 799 800 800
756 752 746 748 761 773 763 740 729 733 737 742 747 749 749 748 748 751 752 748 744 745 747 749 748 745 743 741 739 739 739 740 741 740 738 738 738 738 739 740 742 743 744 747 752 757 762 767 772 777 780 782 784 786 789 791 793 794 794 795 796 797 798
753 751 753 770 779 767 747 733 727 728 730 734 740 743 742 743 744 745 746 745 744 744 743 741 741 741 739 738 737 736 735 736 737 737 737 736 736 736 737 738 740 741 743 746 751 756 761 766 771 775 777 779 782 784 786 788 790 791 792 792 793 794 795
752 756 763 776 773 750 738 739 735 731 734 737 743 749 745 739 740 743 744 743 740 739 738 736 737 739 737 736 734 732 731 731 731 733 733 732 733 734 734 736 738 740 742 746 750 755 760 765 769 772 775 777 779 781 783 785 787 788 789 790 790 791 792
752 757 758 759 759 754 750 746 738 734 737 738 744 754 749 736 732 736 738 740 739 736 736 736 736 738 739 738 733 727 726 727 728 729 728 728 729 730 731 734 737 739 743 746 749 754 759 764 767 770 772 775 776 778 781 782 783 785 786 786 787 788 789
747 751 758 762 767 766 754 741 731 725 726 727 733 748 750 735 728 730 733 737 738 735 736 737 738 740 744 742 734 726 724 725 725 727 726 725 726 728 730 733 736 740 744 746 749 754 758 762 765 767 770 772 774 776 778 779 780 782 783 783 785 786 787
746 752 761 764 764 755 739 731 726 723 724 723 731 753 756 735 723 726 730 734 735 733 734 737 738 743 746 740 731 726 724 723 724 726 726 725 726 729 731 733 736 739 743 746 750 754 757 760 763 765 767 768 771 773 774 775 777 778 779 780 781 782 784
746 751 755 752 748 740 731 728 727 723 720 723 745 772 762 731 721 726 727 730 732 729 732 735 738 742 742 735 729 724 721 722 723 725 727 727 727 729 731 733 736 739 743 747 750 753 756 758 760 761 763 765 767 769 770 772 773 774 776 777 778 779 781
742 749 752 746 739 733 730 729 725 720 722 737 760 769 747 724 723 725 724 727 728 725 730 734 733 732 729 727 725 720 719 723 725 725 727 728 728 730 732 734 737 740 743 746 749 752 754 755 757 759 761 762 764 766 768 769 769 771 773 774 776 777 778
736 740 746 748 742 732 727 727 722 720 735 752 755 742 728 723 725 723 723 726 723 722 727 728 726 723 722 722 722 720 721 725 726 726 727 728 729 731 733 735 738 740 743 745 748 750 752 753 755 757 758 760 762 764 765 766 767 769 770 772 773 775 776
735 740 748 757 755 738 726 728 731 732 740 745 739 730 726 724 722 722 724 724 721 722 724 723 722 721 721 722 722 721 722 725 725 726 727 728 730 731 733 736 738 740 743 745 747 748 750 752 754 755 757 758 759 761 763 763 765 767 768 770 771 772 773
740 749 751 751 747 734 725 731 738 735 731 728 729 731 730 724 722 724 725 723 721 721 721 721 722 722 723 723 722 722 724 724 725 726 727 729 731 732 734 736 738 741 743 744 746 748 749 751 753 754 755 757 758 759 761 762 763 764 765 767 768 769 771
736 741 739 735 732 728 725 728 730 728 724 722 725 728 729 726 723 722 723 723 720 719 720 722 722 722 723 723 722 722 723 724 724 726 728 729 732 733 734 736 739 741 742 743 746 747 748 750 752 753 754 755 756 756 758 760 761 762 762 764 765 768 770
732 733 731 729 730 729 726 725 725 725 724 723 723 726 727 725 721 719 720 721 718 718 720 721 721 722 722 722 722 722 723 724 726 727 729 730 732 734 735 737 739 741 742 743 745 747 748 750 751 751 753 754 754 755 756 757 758 759 760 762 764 767 769
739 740 735 730 730 730 728 726 726 725 725 724 725 726 726 723 721 718 717 717 717 717 718 719 720 720 719 721 723 723 724 726 727 728 729 731 733 734 736 738 740 741 742 744 745 746 748 749 750 751 753 753 754 755 756 756 757 757 759 761 763 766 767
738 739 735 730 729 727 726 727 728 729 729 727 724 724 723 721 720 718 716 716 716 716 716 717 718 718 718 720 723 724 725 727 728 729 731 732 734 736 737 739 741 742 743 745 745 746 748 749 751 752 752 753 754 754 755 756 756 757 759 761 763 765 766
736 735 735 734 731 728 725 726 728 730 730 728 725 723 721 719 718 717 716 715 714 714 714 715 716 718 719 719 720 722 725 727 728 730 732 734 736 738 739 741 742 743 744 745 746 747 748 750 751 752 752 753 753 754 755 756 756 758 760 761 763 765 766
740 739 740 740 740 737 732 729 730 730 729 727 726 724 721 719 718 718 717 716 713 712 713 713 716 720 722 721 721 722 724 726 728 730 732 735 737 738 740 741 742 743 744 745 746 748 749 750 751 752 753 753 754 754 755 756 757 758 759 761 763 764 765
741 740 740 740 742 742 736 732 731 730 728 727 727 725 723 721 718 716 717 717 715 714 714 714 716 720 723 723 723 723 724 727 728 730 732 734 736 737 739 740 741 743 745 746 747 748 749 750 751 752 752 753 753 754 755 756 757 758 758 760 761 762 763
740 738 738 740 742 742 737 732 731 729 727 728 727 725 723 721 718 716 717 716 714 715 717 716 716 719 721 722 723 724 726 727 728 731 733 735 736 738 739 740 742 744 745 746 747 748 749 750 751 751 752 753 753 754 755 755 756 757 757 758 759 760 761
741 739 737 738 740 739 734 730 728 727 726 727 727 725 723 721 719 717 717 715 713 713 716 718 718 718 720 722 723 725 727 728 730 732 734 735 737 738 739 740 743 744 745 747 748 748 749 750 751 751 752 752 753 754 754 755 755 756 757 757 758 759 760